Weather History for Rockland, ME

Change the Weather History Date:

Monday, March 25, 2013

  Actual Average Record
Temperature  
Mean Temperature 32 °F -  
Max Temperature 39 °F 40 °F 48 °F (2009)
Min Temperature 24 °F 27 °F 6 °F (2014)
Degree Days  
Heating Degree Days 34    
Moisture  
Dew Point 28 °F    
Average Humidity 74    
Maximum Humidity 87    
Minimum Humidity 65    
Precipitation  
Precipitation 0.00 in - - ()
Sea Level Pressure  
Sea Level Pressure 29.68 in    
Wind  
Wind Speed 5 mph (NE)    
Max Wind Speed 16 mph    
Max Gust Speed 22 mph    
Visibility 10 miles    
Events      
Averages and records for this station are not official NWS values.
T = Trace of Precipitation, MM = Missing Value Source: NWS Daily Summary

Daily Weather History Graph

Daily Weather History Graph

Search for Another Location

Airport:

Trip Planner

Search our weather history database for the weather conditions in past years. The results will help you decide how hot, cold, wet, or windy it might be!

Date:

Astronomy

Mar. 25, 2013 Rise Set
Actual Time 6:30 AM EDT 6:55 PM EDT
Civil Twilight 6:01 AM EDT 7:24 PM EDT
Nautical Twilight 5:27 AM EDT 7:58 PM EDT
Astronomical Twilight 4:52 AM EDT 8:33 PM EDT
Moon 5:21 PM EDT (3/25) 5:14 AM EDT (3/25)
Length of Visible Light 13h 23m
Length of Day
12h 25m
Waxing Gibbous, 96% of the Moon is Illuminated
Mar 25
Waxing Gibbous
Mar 27
Full
Apr 3
Last Quarter
Apr 10
New
Apr 18
First Quarter

Hourly Weather History & Observations

Time (EDT) Temp. Windchill Dew Point Humidity Pressure Visibility Wind Dir Wind Speed Gust Speed Precip Events Conditions
12:15 AM 33.8 °F 30.8 °F 23.0 °F 65% 29.74 in 10.0 mi NNW 3.5 mph - N/A   Clear
12:35 AM 35.6 °F 32.8 °F 26.6 °F 70% 29.74 in 10.0 mi North 3.5 mph - N/A   Clear
12:55 AM 35.6 °F 32.8 °F 26.6 °F 70% 29.74 in 10.0 mi NNW 3.5 mph - N/A   Clear
1:15 AM 26.6 °F - 19.4 °F 74% 29.75 in 10.0 mi Calm Calm - N/A   Clear
1:35 AM 26.6 °F - 23.0 °F 86% 29.75 in 10.0 mi Calm Calm - N/A   Clear
1:55 AM 26.6 °F - 21.2 °F 80% 29.75 in 10.0 mi Calm Calm - N/A   Clear
2:15 AM 24.8 °F - 21.2 °F 86% 29.75 in 10.0 mi Calm Calm - N/A   Clear
2:35 AM 24.8 °F - 21.2 °F 86% 29.74 in 10.0 mi Calm Calm - N/A   Clear
2:55 AM 26.6 °F - 21.2 °F 80% 29.74 in 10.0 mi Calm Calm - N/A   Clear
3:15 AM 28.4 °F 24.6 °F 23.0 °F 80% 29.74 in 10.0 mi North 3.5 mph - N/A   Clear
3:35 AM 33.8 °F 28.6 °F 28.4 °F 81% 29.74 in 10.0 mi North 5.8 mph - N/A   Clear
3:55 AM 33.8 °F 28.6 °F 28.4 °F 81% 29.74 in 10.0 mi North 5.8 mph - N/A   Clear
4:15 AM 33.8 °F 29.6 °F 28.4 °F 81% 29.74 in 10.0 mi North 4.6 mph - N/A   Clear
4:35 AM 33.8 °F 28.6 °F 28.4 °F 81% 29.74 in 10.0 mi North 5.8 mph - N/A   Clear
4:55 AM 33.8 °F 29.6 °F 28.4 °F 81% 29.74 in 10.0 mi North 4.6 mph - N/A   Clear
5:15 AM 33.8 °F 30.8 °F 28.4 °F 81% 29.74 in 10.0 mi North 3.5 mph - N/A   Clear
5:35 AM 33.8 °F 29.6 °F 28.4 °F 81% 29.74 in 10.0 mi NNE 4.6 mph - N/A   Clear
5:55 AM 32.0 °F 26.4 °F 28.4 °F 87% 29.74 in 10.0 mi NNE 5.8 mph - N/A   Clear
6:15 AM 33.8 °F 29.6 °F 28.4 °F 81% 29.73 in 10.0 mi NNE 4.6 mph - N/A   Clear
6:35 AM 33.8 °F 27.0 °F 28.4 °F 81% 29.73 in 10.0 mi NNE 8.1 mph - N/A   Clear
6:55 AM 33.8 °F 27.0 °F 28.4 °F 81% 29.73 in 10.0 mi NNE 8.1 mph 17.3 mph N/A   Clear
7:15 AM 33.8 °F 26.4 °F 28.4 °F 81% 29.73 in 10.0 mi NNE 9.2 mph - N/A   Clear
7:35 AM 33.8 °F 26.4 °F 30.2 °F 87% 29.73 in 10.0 mi NNE 9.2 mph - N/A   Clear
7:55 AM 33.8 °F 24.3 °F 30.2 °F 87% 29.73 in 10.0 mi NNE 13.8 mph 17.3 mph N/A   Clear
8:15 AM 35.6 °F 28.6 °F 30.2 °F 81% 29.72 in 10.0 mi NNE 9.2 mph - N/A   Clear
8:35 AM 35.6 °F 28.0 °F 30.2 °F 81% 29.72 in 10.0 mi NNE 10.4 mph 19.6 mph N/A   Clear
8:55 AM 35.6 °F 28.6 °F 30.2 °F 81% 29.72 in 10.0 mi NNE 9.2 mph 17.3 mph N/A   Mostly Cloudy
9:15 AM 35.6 °F 28.0 °F 30.2 °F 81% 29.72 in 10.0 mi NNE 10.4 mph 18.4 mph N/A   Scattered Clouds
9:35 AM 35.6 °F 27.5 °F 30.2 °F 81% 29.73 in 10.0 mi NNE 11.5 mph 18.4 mph N/A   Partly Cloudy
9:55 AM 37.4 °F 29.3 °F 30.2 °F 75% 29.73 in 10.0 mi NNE 12.7 mph 17.3 mph N/A   Clear
10:15 AM 37.4 °F 28.2 °F 30.2 °F 75% 29.73 in 10.0 mi NE 16.1 mph - N/A   Clear
10:35 AM 37.4 °F 30.3 °F 30.2 °F 75% 29.74 in 10.0 mi NE 10.4 mph - N/A   Partly Cloudy
10:55 AM 37.4 °F 30.8 °F 30.2 °F 75% 29.73 in 10.0 mi NE 9.2 mph - N/A   Mostly Cloudy
11:15 AM 39.2 °F 33.6 °F 30.2 °F 70% 29.73 in 10.0 mi ENE 8.1 mph - N/A   Mostly Cloudy
11:35 AM 39.2 °F 35.9 °F 30.2 °F 70% 29.72 in 10.0 mi NE 4.6 mph - N/A   Scattered Clouds
11:55 AM 39.2 °F 34.2 °F 28.4 °F 65% 29.71 in 10.0 mi NE 6.9 mph - N/A   Partly Cloudy
12:15 PM 39.2 °F 33.6 °F 30.2 °F 70% 29.70 in 10.0 mi NE 8.1 mph - N/A   Scattered Clouds
12:35 PM 39.2 °F 33.6 °F 28.4 °F 65% 29.69 in 10.0 mi ESE 8.1 mph - N/A   Scattered Clouds
12:55 PM 39.2 °F 33.6 °F 28.4 °F 65% 29.69 in 10.0 mi ESE 8.1 mph - N/A   Mostly Cloudy
1:15 PM 39.2 °F 33.0 °F 28.4 °F 65% 29.69 in 10.0 mi ESE 9.2 mph - N/A   Mostly Cloudy
1:35 PM 39.2 °F 33.0 °F 30.2 °F 70% 29.68 in 10.0 mi ESE 9.2 mph - N/A   Mostly Cloudy
1:55 PM 39.2 °F 33.6 °F 30.2 °F 70% 29.67 in 10.0 mi ESE 8.1 mph - N/A   Overcast
2:35 PM 39.2 °F 35.0 °F 32.0 °F 75% 29.66 in 10.0 mi ENE 5.8 mph - N/A   Mostly Cloudy
2:55 PM 39.2 °F 35.9 °F 30.2 °F 70% 29.66 in 10.0 mi ESE 4.6 mph - N/A   Partly Cloudy
3:15 PM 39.2 °F 35.0 °F 28.4 °F 65% 29.66 in 10.0 mi ESE 5.8 mph - N/A   Clear
3:35 PM 39.2 °F 35.9 °F 28.4 °F 65% 29.65 in 10.0 mi ESE 4.6 mph - N/A   Partly Cloudy
3:55 PM 39.2 °F 34.2 °F 28.4 °F 65% 29.65 in 10.0 mi ESE 6.9 mph - N/A   Mostly Cloudy
4:15 PM 39.2 °F 34.2 °F 28.4 °F 65% 29.64 in 10.0 mi ESE 6.9 mph - N/A   Mostly Cloudy
4:35 PM 39.2 °F 33.6 °F 28.4 °F 65% 29.63 in 10.0 mi East 8.1 mph - N/A   Partly Cloudy
4:55 PM 37.4 °F 32.1 °F 30.2 °F 75% 29.61 in 10.0 mi East 6.9 mph - N/A   Clear
5:15 PM 37.4 °F 31.4 °F 28.4 °F 70% 29.60 in 10.0 mi East 8.1 mph - N/A   Clear
5:35 PM 39.2 °F 34.2 °F 30.2 °F 70% 29.59 in 10.0 mi East 6.9 mph - N/A   Clear
5:55 PM 39.2 °F 35.9 °F 30.2 °F 70% 29.59 in 10.0 mi ESE 4.6 mph - N/A   Clear
6:15 PM 37.4 °F 34.9 °F 30.2 °F 75% 29.60 in 10.0 mi ESE 3.5 mph - N/A   Clear
6:35 PM 37.4 °F 34.9 °F 28.4 °F 70% 29.60 in 10.0 mi NNE 3.5 mph - N/A   Partly Cloudy
6:55 PM 37.4 °F 34.9 °F 28.4 °F 70% 29.60 in 10.0 mi NNE 3.5 mph - N/A   Scattered Clouds
7:15 PM 37.4 °F - 28.4 °F 70% 29.60 in 10.0 mi Calm Calm - N/A   Mostly Cloudy
7:35 PM 35.6 °F 32.8 °F 28.4 °F 75% 29.59 in 10.0 mi North 3.5 mph - N/A   Mostly Cloudy
7:55 PM 37.4 °F - 30.2 °F 75% 29.60 in 10.0 mi Calm Calm - N/A   Overcast
8:15 PM 37.4 °F 34.9 °F 28.4 °F 70% 29.59 in 10.0 mi North 3.5 mph - N/A   Overcast
8:35 PM 37.4 °F 32.8 °F 28.4 °F 70% 29.60 in 10.0 mi NNE 5.8 mph - N/A   Overcast
8:55 PM 39.2 °F 31.6 °F 28.4 °F 65% 29.61 in 10.0 mi NE 12.7 mph 19.6 mph N/A   Overcast
9:15 PM 39.2 °F 31.2 °F 28.4 °F 65% 29.61 in 10.0 mi NE 13.8 mph - N/A   Overcast
9:35 PM 37.4 °F 29.8 °F 28.4 °F 70% 29.61 in 10.0 mi ENE 11.5 mph - N/A   Overcast
9:55 PM 37.4 °F 30.3 °F 30.2 °F 75% 29.61 in 10.0 mi ENE 10.4 mph - N/A   Overcast
10:15 PM 37.4 °F 30.8 °F 30.2 °F 75% 29.60 in 10.0 mi ENE 9.2 mph - N/A   Overcast
10:35 PM 37.4 °F 32.1 °F 30.2 °F 75% 29.60 in 10.0 mi NE 6.9 mph - N/A   Overcast
10:55 PM 37.4 °F 32.8 °F 30.2 °F 75% 29.59 in 10.0 mi NE 5.8 mph - N/A   Overcast
11:15 PM 37.4 °F 30.3 °F 28.4 °F 70% 29.58 in 10.0 mi NE 10.4 mph 19.6 mph N/A   Overcast
11:35 PM 37.4 °F 28.5 °F 26.6 °F 65% 29.58 in 10.0 mi NNE 15.0 mph 21.9 mph N/A   Overcast
11:55 PM 37.4 °F 29.8 °F 26.6 °F 65% 29.57 in 10.0 mi NE 11.5 mph 18.4 mph N/A   Overcast